SRA586 OERK-OEGS

Flight info

Callsign SRA586
Flight time 0h 50m
Altitude 26000
Route IVONU Z710 GAS
Aircraft MD11/H-SDE1E2E3FGHIJ2J3J4J5M1RWXY/LB1D1

Departure

Time 2026-04-26 15:39
Airport King Khalid International Airport (OERK)

Arrival

Time 2026-04-26 16:29
Airport Prince Naif bin Abdulaziz International Airport (OEGS)
Time Latitude Longitude Altitude Speed Heading
2026-04-26 14:49 24.95838 46.69495 2037 ft 0 kts 59°
2026-04-26 15:17 24.95829 46.69478 2037 ft 4 kts 59°
2026-04-26 15:17 24.95817 46.69457 2037 ft 4 kts 65°
2026-04-26 15:18 24.95812 46.69430 2042 ft 4 kts 110°
2026-04-26 15:18 24.95828 46.69409 2039 ft 4 kts 150°
2026-04-26 15:18 24.95851 46.69396 2040 ft 2 kts 151°
2026-04-26 15:18 24.95853 46.69395 2044 ft 0 kts 150°
2026-04-26 15:30 24.95850 46.69397 2037 ft 3 kts 150°
2026-04-26 15:30 24.95817 46.69417 2039 ft 8 kts 150°
2026-04-26 15:31 24.95798 46.69428 2037 ft 0 kts 152°
2026-04-26 15:31 24.95798 46.69429 2044 ft 1 kts 152°
2026-04-26 15:31 24.95797 46.69429 2037 ft 0 kts 152°
2026-04-26 15:32 24.95793 46.69431 2042 ft 2 kts 152°
2026-04-26 15:32 24.95766 46.69441 2044 ft 2 kts 182°
2026-04-26 15:32 24.95739 46.69433 2037 ft 7 kts 198°
2026-04-26 15:33 24.95702 46.69381 2043 ft 11 kts 262°
2026-04-26 15:33 24.95720 46.69274 2038 ft 18 kts 284°
2026-04-26 15:33 24.95702 46.69135 2042 ft 22 kts 240°
2026-04-26 15:33 24.95626 46.68990 2039 ft 21 kts 240°
2026-04-26 15:34 24.95558 46.68861 2044 ft 16 kts 240°
2026-04-26 15:34 24.95551 46.68826 2039 ft 1 kts 280°
2026-04-26 15:34 24.95566 46.68803 2037 ft 6 kts 311°
2026-04-26 15:34 24.95618 46.68767 2043 ft 13 kts 330°
2026-04-26 15:35 24.95717 46.68704 2044 ft 20 kts 330°
2026-04-26 15:35 24.95861 46.68614 2043 ft 27 kts 330°
2026-04-26 15:35 24.96032 46.68505 2041 ft 27 kts 330°
2026-04-26 15:35 24.96188 46.68406 2042 ft 25 kts 330°
2026-04-26 15:36 24.96332 46.68315 2035 ft 23 kts 330°
2026-04-26 15:36 24.96462 46.68232 2038 ft 21 kts 329°
2026-04-26 15:36 24.96581 46.68157 2041 ft 19 kts 330°
2026-04-26 15:36 24.96712 46.68075 2042 ft 25 kts 330°
2026-04-26 15:37 24.96863 46.67981 2043 ft 24 kts 330°
2026-04-26 15:37 24.97000 46.67895 2042 ft 21 kts 330°
2026-04-26 15:37 24.97120 46.67819 2041 ft 18 kts 330°
2026-04-26 15:37 24.97187 46.67732 2042 ft 13 kts 274°
2026-04-26 15:38 24.97162 46.67651 2036 ft 10 kts 241°
2026-04-26 15:38 24.97131 46.67589 2035 ft 10 kts 240°
2026-04-26 15:38 24.97095 46.67532 2038 ft 8 kts 221°
2026-04-26 15:38 24.97036 46.67529 2034 ft 11 kts 160°
2026-04-26 15:39 24.96919 46.67599 2039 ft 49 kts 150°
2026-04-26 15:39 24.96300 46.67994 2040 ft 154 kts 150°
2026-04-26 15:39 24.95180 46.68701 2405 ft 207 kts 149°
2026-04-26 15:39 24.94370 46.69216 3264 ft 196 kts 149°
2026-04-26 15:40 24.92894 46.70114 5221 ft 182 kts 155°
2026-04-26 15:40 24.91705 46.70532 6263 ft 184 kts 165°
2026-04-26 15:40 24.90322 46.70922 6548 ft 225 kts 166°
2026-04-26 15:40 24.88698 46.71379 6680 ft 256 kts 166°
2026-04-26 15:41 24.86900 46.71897 6686 ft 272 kts 166°
2026-04-26 15:41 24.85052 46.72439 6926 ft 276 kts 165°
2026-04-26 15:41 24.83219 46.72997 8247 ft 277 kts 165°
2026-04-26 15:41 24.81333 46.73476 9379 ft 281 kts 169°
2026-04-26 15:42 24.79369 46.73735 10240 ft 294 kts 181°
2026-04-26 15:42 24.77257 46.73226 10385 ft 331 kts 205°
2026-04-26 15:42 24.75312 46.71698 10833 ft 355 kts 228°
2026-04-26 15:42 24.73992 46.69388 11884 ft 362 kts 248°
2026-04-26 15:43 24.73470 46.66687 13018 ft 364 kts 268°
2026-04-26 15:43 24.73772 46.63912 14074 ft 368 kts 283°
2026-04-26 15:43 24.75468 46.58531 15947 ft 376 kts 289°
2026-04-26 15:44 24.76429 46.55846 16836 ft 379 kts 289°
2026-04-26 15:44 24.78334 46.50395 18507 ft 384 kts 288°
2026-04-26 15:44 24.79274 46.47626 19268 ft 387 kts 288°
2026-04-26 15:45 24.81127 46.42060 20699 ft 392 kts 287°
2026-04-26 15:45 24.82062 46.39224 21378 ft 396 kts 287°
2026-04-26 15:46 24.83951 46.33484 22777 ft 401 kts 286°
2026-04-26 15:46 24.84905 46.30581 23481 ft 404 kts 285°
2026-04-26 15:46 24.85865 46.27661 24189 ft 407 kts 285°
2026-04-26 15:46 24.86517 46.25672 24658 ft 409 kts 285°
2026-04-26 15:47 24.87802 46.21755 25607 ft 413 kts 285°
2026-04-26 15:47 24.89736 46.15867 26354 ft 391 kts 285°
2026-04-26 15:47 24.90666 46.13034 26731 ft 393 kts 285°
2026-04-26 15:48 24.91592 46.10197 26933 ft 393 kts 285°
2026-04-26 15:48 24.92513 46.07375 26982 ft 391 kts 286°
2026-04-26 15:48 24.93434 46.04555 26986 ft 394 kts 286°
2026-04-26 15:48 24.94378 46.01652 26994 ft 411 kts 286°
2026-04-26 15:49 24.95365 45.98601 26622 ft 436 kts 286°
2026-04-26 15:49 24.96401 45.95410 26246 ft 445 kts 286°
2026-04-26 15:49 24.97450 45.92193 26043 ft 447 kts 286°
2026-04-26 15:49 24.98506 45.88963 26004 ft 448 kts 286°
2026-04-26 15:50 24.99565 45.85721 25993 ft 452 kts 285°
2026-04-26 15:50 25.00627 45.82452 25990 ft 454 kts 285°
2026-04-26 15:50 25.01689 45.79175 25990 ft 455 kts 285°
2026-04-26 15:50 25.02748 45.75887 25990 ft 455 kts 285°
2026-04-26 15:51 25.03817 45.72598 25989 ft 455 kts 287°
2026-04-26 15:51 25.05023 45.69370 25989 ft 457 kts 289°
2026-04-26 15:51 25.06350 45.66178 25990 ft 458 kts 291°
2026-04-26 15:51 25.07733 45.63008 25991 ft 459 kts 291°
2026-04-26 15:52 25.09128 45.59850 25987 ft 458 kts 291°
2026-04-26 15:52 25.10521 45.56685 25990 ft 458 kts 291°
2026-04-26 15:52 25.11905 45.53519 25989 ft 457 kts 291°
2026-04-26 15:52 25.12817 45.51423 25990 ft 457 kts 291°
2026-04-26 15:53 25.14648 45.47190 25990 ft 457 kts 291°
2026-04-26 15:53 25.16015 45.44018 25990 ft 457 kts 291°
2026-04-26 15:53 25.17379 45.40851 25990 ft 457 kts 291°
2026-04-26 15:53 25.18738 45.37687 25985 ft 456 kts 291°
2026-04-26 15:54 25.20096 45.34530 25981 ft 455 kts 291°
2026-04-26 15:54 25.21452 45.31377 25980 ft 454 kts 291°
2026-04-26 15:54 25.22348 45.29291 25981 ft 453 kts 291°
2026-04-26 15:54 25.23695 45.26154 25981 ft 452 kts 291°
2026-04-26 15:55 25.25040 45.23022 25980 ft 451 kts 290°
2026-04-26 15:55 25.26383 45.19892 25980 ft 450 kts 290°
2026-04-26 15:55 25.27721 45.16771 25980 ft 449 kts 290°
2026-04-26 15:55 25.29054 45.13657 25980 ft 448 kts 290°
2026-04-26 15:56 25.30383 45.10550 25980 ft 447 kts 291°
2026-04-26 15:56 25.31685 45.07516 25957 ft 427 kts 290°
2026-04-26 15:56 25.32930 45.04623 25802 ft 407 kts 290°
2026-04-26 15:56 25.34158 45.01743 25944 ft 419 kts 290°
2026-04-26 15:57 25.35400 44.98815 25974 ft 422 kts 290°
2026-04-26 15:57 25.36648 44.95877 25979 ft 423 kts 290°
2026-04-26 15:57 25.37902 44.92931 25980 ft 423 kts 290°
2026-04-26 15:57 25.38731 44.90984 25983 ft 423 kts 290°
2026-04-26 15:58 25.40403 44.87042 25981 ft 423 kts 290°
2026-04-26 15:58 25.41631 44.84133 25981 ft 423 kts 290°
2026-04-26 15:58 25.42875 44.81186 25981 ft 423 kts 290°
2026-04-26 15:58 25.44139 44.78197 25980 ft 424 kts 290°
2026-04-26 15:59 25.45375 44.75281 25981 ft 424 kts 290°
2026-04-26 15:59 25.46626 44.72326 25959 ft 424 kts 290°
2026-04-26 15:59 25.47877 44.69374 25976 ft 424 kts 290°
2026-04-26 15:59 25.49128 44.66423 25962 ft 423 kts 290°
2026-04-26 16:00 25.50378 44.63474 25891 ft 422 kts 290°
2026-04-26 16:00 25.51699 44.60600 25840 ft 418 kts 295°
2026-04-26 16:00 25.53423 44.57979 25688 ft 426 kts 307°
2026-04-26 16:00 25.55696 44.55817 25313 ft 437 kts 318°
2026-04-26 16:01 25.58309 44.54023 24723 ft 444 kts 324°
2026-04-26 16:01 25.61033 44.52397 24080 ft 446 kts 325°
2026-04-26 16:01 25.63779 44.50806 23401 ft 444 kts 326°
2026-04-26 16:01 25.66484 44.49212 22837 ft 433 kts 325°
2026-04-26 16:02 25.69094 44.47641 22268 ft 430 kts 324°
2026-04-26 16:02 25.71697 44.46022 21590 ft 426 kts 324°
2026-04-26 16:02 25.74244 44.44416 20961 ft 416 kts 324°
2026-04-26 16:02 25.75890 44.43371 20583 ft 410 kts 324°
2026-04-26 16:03 25.79198 44.41260 19805 ft 410 kts 324°
2026-04-26 16:03 25.81658 44.39685 19237 ft 407 kts 324°
2026-04-26 16:03 25.84070 44.38143 18673 ft 404 kts 325°
2026-04-26 16:03 25.86495 44.36594 18101 ft 401 kts 325°
2026-04-26 16:04 25.88900 44.35053 17531 ft 398 kts 326°
2026-04-26 16:04 25.91290 44.33529 16957 ft 394 kts 325°
2026-04-26 16:04 25.93657 44.32014 16403 ft 392 kts 326°
2026-04-26 16:04 25.96014 44.30506 15855 ft 390 kts 326°
2026-04-26 16:05 25.98362 44.29004 15319 ft 388 kts 326°
2026-04-26 16:05 26.00699 44.27508 14762 ft 387 kts 326°
2026-04-26 16:05 26.03022 44.26014 14228 ft 385 kts 326°
2026-04-26 16:05 26.05315 44.24490 13691 ft 382 kts 323°
2026-04-26 16:06 26.07423 44.22722 13202 ft 377 kts 316°
2026-04-26 16:06 26.09380 44.20799 12804 ft 372 kts 314°
2026-04-26 16:06 26.11244 44.18891 12398 ft 357 kts 314°
2026-04-26 16:06 26.13033 44.17037 11997 ft 345 kts 313°
2026-04-26 16:07 26.14764 44.15239 11595 ft 338 kts 313°
2026-04-26 16:07 26.16477 44.13454 11195 ft 336 kts 313°
2026-04-26 16:07 26.18181 44.11678 10794 ft 335 kts 313°
2026-04-26 16:07 26.19882 44.09905 10393 ft 335 kts 313°
2026-04-26 16:08 26.21580 44.08134 9998 ft 334 kts 313°
2026-04-26 16:08 26.23272 44.06366 9593 ft 333 kts 313°
2026-04-26 16:08 26.24962 44.04602 9193 ft 333 kts 313°
2026-04-26 16:08 26.26649 44.02842 8793 ft 332 kts 313°
2026-04-26 16:09 26.28335 44.01083 8394 ft 331 kts 313°
2026-04-26 16:09 26.30013 43.99335 7997 ft 329 kts 314°
2026-04-26 16:09 26.31751 43.97677 7593 ft 326 kts 318°
2026-04-26 16:09 26.33507 43.96163 7195 ft 319 kts 319°
2026-04-26 16:10 26.35236 43.94714 6780 ft 296 kts 319°
2026-04-26 16:10 26.36814 43.93407 6398 ft 275 kts 319°
2026-04-26 16:10 26.38349 43.92150 5999 ft 263 kts 319°
2026-04-26 16:10 26.39772 43.90973 5624 ft 256 kts 319°
2026-04-26 16:11 26.41142 43.89712 5370 ft 256 kts 317°
2026-04-26 16:11 26.42483 43.88405 5157 ft 256 kts 317°
2026-04-26 16:11 26.43803 43.87081 4958 ft 254 kts 317°
2026-04-26 16:11 26.45101 43.85751 4759 ft 253 kts 315°
2026-04-26 16:12 26.46398 43.84452 4560 ft 248 kts 316°
2026-04-26 16:12 26.47696 43.83199 4474 ft 246 kts 316°
2026-04-26 16:12 26.50261 43.80732 4451 ft 230 kts 316°
2026-04-26 16:13 26.51211 43.79376 4439 ft 218 kts 289°
2026-04-26 16:13 26.51361 43.77743 4460 ft 209 kts 256°
2026-04-26 16:13 26.50862 43.76277 4488 ft 203 kts 244°
2026-04-26 16:13 26.50264 43.74861 4469 ft 201 kts 243°
2026-04-26 16:14 26.49667 43.73446 4459 ft 201 kts 243°
2026-04-26 16:14 26.49073 43.72033 4391 ft 201 kts 243°
2026-04-26 16:14 26.47337 43.69759 4206 ft 199 kts 198°
2026-04-26 16:15 26.45958 43.69580 4166 ft 201 kts 184°
2026-04-26 16:15 26.44587 43.69556 4071 ft 193 kts 175°
2026-04-26 16:15 26.43313 43.70012 4024 ft 194 kts 154°
2026-04-26 16:16 26.40924 43.71308 4011 ft 182 kts 152°
2026-04-26 16:16 26.39867 43.71921 3962 ft 166 kts 152°
2026-04-26 16:16 26.38859 43.72503 3764 ft 160 kts 152°
2026-04-26 16:16 26.37873 43.73067 3547 ft 159 kts 151°
2026-04-26 16:17 26.36888 43.73633 3343 ft 159 kts 151°
2026-04-26 16:17 26.35905 43.74203 3123 ft 159 kts 151°
2026-04-26 16:17 26.34920 43.74767 2901 ft 159 kts 150°
2026-04-26 16:17 26.33935 43.75330 2694 ft 159 kts 152°
2026-04-26 16:18 26.32951 43.75890 2479 ft 159 kts 150°
2026-04-26 16:18 26.31033 43.76987 2146 ft 136 kts 155°
2026-04-26 16:19 26.29870 43.77648 2141 ft 106 kts 153°
2026-04-26 16:19 26.28939 43.78180 2337 ft 179 kts 152°
2026-04-26 16:19 26.27227 43.79178 3968 ft 170 kts 150°
2026-04-26 16:20 26.25770 43.80271 4537 ft 211 kts 129°
2026-04-26 16:20 26.25313 43.83601 4960 ft 238 kts 71°
2026-04-26 16:20 26.26024 43.85272 5275 ft 243 kts 63°
2026-04-26 16:21 26.26898 43.86888 5322 ft 248 kts 45°
2026-04-26 16:21 26.28400 43.87726 5156 ft 247 kts 10°
2026-04-26 16:21 26.30080 43.87604 4779 ft 243 kts 342°
2026-04-26 16:21 26.31610 43.86844 4516 ft 239 kts 334°
2026-04-26 16:22 26.33089 43.86007 4430 ft 238 kts 334°
2026-04-26 16:22 26.34561 43.85172 4450 ft 238 kts 333°
2026-04-26 16:22 26.36042 43.84330 4445 ft 237 kts 333°
2026-04-26 16:22 26.37511 43.83494 4459 ft 237 kts 333°
2026-04-26 16:23 26.38979 43.82659 4462 ft 237 kts 333°
2026-04-26 16:23 26.40450 43.81825 4462 ft 237 kts 333°
2026-04-26 16:23 26.41919 43.80992 4466 ft 236 kts 333°
2026-04-26 16:23 26.43352 43.80177 4461 ft 223 kts 333°
2026-04-26 16:24 26.44701 43.79409 4457 ft 214 kts 333°
2026-04-26 16:24 26.45992 43.78674 4451 ft 204 kts 333°
2026-04-26 16:24 26.47047 43.77637 4431 ft 203 kts 300°
2026-04-26 16:24 26.47367 43.76159 4471 ft 194 kts 262°
2026-04-26 16:25 26.46958 43.74763 4486 ft 190 kts 244°
2026-04-26 16:25 26.46397 43.73431 4463 ft 190 kts 243°
2026-04-26 16:25 26.45831 43.72089 4483 ft 194 kts 243°
2026-04-26 16:25 26.45098 43.70818 4465 ft 196 kts 219°
2026-04-26 16:26 26.43879 43.70207 4507 ft 194 kts 187°
2026-04-26 16:26 26.42989 43.70205 4493 ft 194 kts 166°
2026-04-26 16:26 26.41399 43.71022 4321 ft 184 kts 150°
2026-04-26 16:26 26.40300 43.71671 4084 ft 173 kts 151°
2026-04-26 16:27 26.39243 43.72282 3842 ft 173 kts 152°
2026-04-26 16:27 26.38185 43.72887 3603 ft 165 kts 152°
2026-04-26 16:27 26.37182 43.73460 3387 ft 161 kts 151°
2026-04-26 16:27 26.36193 43.74034 3182 ft 160 kts 152°
2026-04-26 16:28 26.35199 43.74604 2995 ft 161 kts 151°
2026-04-26 16:28 26.34208 43.75172 2757 ft 160 kts 151°
2026-04-26 16:28 26.33221 43.75739 2523 ft 158 kts 152°
2026-04-26 16:28 26.32240 43.76297 2341 ft 159 kts 152°
2026-04-26 16:29 26.31263 43.76857 2153 ft 152 kts 152°
2026-04-26 16:29 26.30479 43.77302 2143 ft 98 kts 153°
2026-04-26 16:29 26.30033 43.77555 2141 ft 58 kts 153°
2026-04-26 16:29 26.29758 43.77699 2142 ft 31 kts 163°
2026-04-26 16:30 26.29588 43.77724 2142 ft 15 kts 180°
2026-04-26 16:30 26.29509 43.77722 2140 ft 8 kts 182°
2026-04-26 16:30 26.29462 43.77714 2141 ft 6 kts 203°
2026-04-26 16:30 26.29439 43.77691 2139 ft 4 kts 232°
2026-04-26 16:31 26.29434 43.77669 2139 ft 3 kts 269°
2026-04-26 16:31 26.29449 43.77641 2140 ft 6 kts 314°
2026-04-26 16:31 26.29493 43.77610 2138 ft 7 kts 332°
2026-04-26 16:31 26.29531 43.77588 2140 ft 5 kts 333°
2026-04-26 16:32 26.29575 43.77563 2140 ft 10 kts 333°
2026-04-26 16:32 26.29624 43.77535 2140 ft 14 kts 333°
2026-04-26 16:32 26.29766 43.77455 2138 ft 21 kts 333°
2026-04-26 16:32 26.29904 43.77376 2140 ft 22 kts 333°
2026-04-26 16:33 26.30034 43.77302 2142 ft 20 kts 333°
2026-04-26 16:33 26.30153 43.77235 2142 ft 18 kts 333°
2026-04-26 16:33 26.30207 43.77195 2143 ft 4 kts 311°
2026-04-26 16:33 26.30220 43.77175 2143 ft 2 kts 301°
2026-04-26 16:34 26.30227 43.77159 2141 ft 4 kts 296°
2026-04-26 16:34 26.30242 43.77122 2140 ft 5 kts 293°
2026-04-26 16:34 26.30252 43.77094 2143 ft 3 kts 292°
2026-04-26 16:34 26.30256 43.77084 2141 ft 0 kts 292°